Location: Bouzièyas
(44.3167°N, 6.8667°E)
Time: 16:10:12
(UTC+00:00)

Daily predictions for brighter satellites

Satellite Brightness Start Highest point End
(mag) Time Altitude Azimuth Time Altitude Azimuth Time Altitude Azimuth
NOSS 3-4 (A) 4.4 19:46:03 10° NW 19:53:02 63° WSW 20:00:54 10° SSE
NOSS 3-4 (C) 4.3 19:46:09 10° NW 19:53:08 63° WSW 20:00:59 10° SSE
Cosmos 2369 Rocket 4.1 19:52:41 10° NW 19:57:20 27° WSW 20:01:58 10° SSW
Cosmos 1371 Rocket 4.1 19:53:50 10° S 19:58:58 60° ESE 20:04:11 10° NNE
Okean 1 Rocket 4.0 19:54:52 10° NNW 19:59:13 51° W 20:03:30 10° SSW
Cosmos 1455 Rocket 3.3 19:54:58 10° N 19:59:15 55° ENE 20:03:29 10° SSE
Landsat 7 4.3 19:55:42 10° S 20:00:21 62° WSW 20:05:03 10° NNW
Cosmos 2315 Rocket 4.2 19:55:02 10° SSE 20:01:11 56° E 20:07:19 10° NNE
CZ-4B R/B 1.1 20:00:13 10° NNE 20:03:03 52° E 20:05:51 10° S
Cosmos 1709 Rocket 4.1 19:59:14 10° N 20:05:26 68° E 20:11:40 10° SSE
Cosmos 1953 3.9 20:01:55 10° NNW 20:05:31 34° W 20:09:06 10° SSW
MetOp-B 4.2 20:07:11 10° SSE 20:12:28 67° ENE 20:17:47 10° N
PSLV R/B 4.1 20:08:34 10° N 20:12:42 79° WNW 20:16:52 10° SSW
IRAS Rocket 4.4 20:07:11 10° NNE 20:12:43 57° ESE 20:18:09 10° S
Cosmos 1607 3.9 20:06:45 10° SSW 20:12:58 79° ESE 20:19:11 10° NE
USA 245 4.0 20:10:59 10° SE 20:15:26 44° ENE 20:19:04 10° N
Cosmos 1624 Rocket 4.0 20:13:40 10° SSW 20:18:54 83° ESE 20:24:08 10° NNE
Cosmos 1190 Rocket 4.1 20:16:07 10° NNW 20:21:28 82° WSW 20:26:44 10° SSE
Cosmos 1833 Rocket 4.0 20:18:36 11° SE 20:22:16 19° E 20:26:09 10° NE
Meteor 1-24 Rocket 3.6 20:17:42 10° S 20:22:58 74° E 20:28:23 10° NNE
Cosmos 407 Rocket 4.2 20:18:21 10° NNW 20:23:22 52° WSW 20:28:19 10° S
Cosmos 1536 Rocket 4.5 20:22:40 12° SSE 20:26:05 30° E 20:29:52 10° NNE
Cosmos 2084 3.4 20:23:44 10° SW 20:27:34 75° NW 20:31:27 10° NE
ERS-1 Rocket 3.7 20:23:27 12° SE 20:27:41 39° ENE 20:32:21 10° N
H-2A R/B 3.2 20:25:36 10° N 20:29:51 47° WNW 20:34:07 10° SW
Cosmos 1975 Rocket 3.6 20:27:49 10° SSW 20:32:14 64° W 20:36:39 10° N
CARTOSAT-1 3.5 20:28:46 10° SSE 20:33:02 88° ENE 20:37:23 10° NNW
SPOT 3 Rocket 3.6 20:28:37 11° SSE 20:33:39 78° ENE 20:38:53 10° N
Cosmos 2056 Rocket 4.0 20:34:32 10° SSW 20:39:53 67° WNW 20:45:19 10° NNE
ATLAS 5 CENTAUR R/B 3.5 20:33:11 10° NW 20:45:07 57° WSW 20:48:19 16° SSE
Cosmos 1420 Rocket 4.3 20:41:27 10° SSW 20:46:40 72° WNW 20:51:58 10° NNE
Cosmos 1271 Rocket 2.7 20:43:14 10° N 20:47:14 87° E 20:50:15 17° S
Cosmos 2082 Rocket 4.0 20:46:10 12° ESE 20:47:27 13° E 20:49:46 10° ENE
Cosmos 676 Rocket 4.1 20:43:52 10° NNW 20:49:12 78° WSW 20:53:30 16° SSE
Cosmos 1544 Rocket 3.6 20:46:52 10° N 20:51:12 81° W 20:54:48 15° S
Lacrosse 5 rocket 1.8 20:48:22 10° WNW 20:52:06 46° SW 20:54:36 20° SSE
Cosmos 724 4.2 20:46:43 10° SSW 20:52:32 87° ESE 20:58:22 10° NE
Tiangong 1.8 20:49:45 10° W 20:52:42 36° SSW 20:53:52 26° SSE
Helios 1A Rocket 2.9 20:53:26 20° SSE 20:56:13 75° ENE 21:00:19 10° N
USA 276 3.0 20:55:07 10° W 20:58:03 48° NNW 21:00:58 10° ENE
SPOT 5 2.6 20:55:22 18° SSE 20:58:36 84° ENE 21:02:58 10° NNW
X-37B 0.3 20:56:02 10° W 20:58:51 79° N 21:01:13 14° E
NOSS 2-1 (C) 4.1 20:56:00 10° NW 21:00:40 82° SW 21:05:16 20° SSE
Ariane Rocket 4.2 20:56:35 10° SSW 21:01:19 38° W 21:06:05 10° NNW
USA 267 3.4 20:56:16 10° ENE 21:02:33 48° SE 21:08:48 10° SSW
USA 32 4.5 21:00:08 10° SSW 21:05:17 61° W 21:10:28 10° N
RESURS DK-1 3.0 21:04:32 10° NNW 21:08:32 44° ENE 21:10:41 23° ESE
NOSS 2-1 (D) 4.3 21:06:19 10° NW 21:11:02 70° SW 21:15:21 22° SSE
Resurs 01 Rocket 4.0 21:08:16 10° SW 21:11:23 19° W 21:14:32 10° NW
Cosmos 1455 3.2 21:10:23 10° NNW 21:14:00 42° W 21:16:48 15° SSW
Cosmos 2184 Rocket 3.9 21:08:10 10° N 21:14:23 82° E 21:18:45 21° SSE
Cosmos 1850 Rocket 4.0 21:11:13 10° NNW 21:16:26 72° ENE 21:19:26 26° SSE
Terra 1.8 21:21:16 24° S 21:24:09 81° WSW 21:28:56 10° NNW
Lacrosse 5 2.3 21:21:19 10° NW 21:26:15 51° SW 21:28:44 27° SSE
COSMOS 2406 3.7 21:25:53 25° SSE 21:28:31 40° ESE 21:33:51 10° NE
Cosmos 1331 Rocket 4.0 21:25:33 21° S 21:29:06 64° ESE 21:34:22 10° NNE
Spot 2 Rocket 4.2 21:28:27 18° SSW 21:32:04 48° W 21:37:01 10° NNW
Cosmos 1892 Rocket 4.2 21:33:27 31° SE 21:34:42 38° E 21:38:47 10° NNE
Cosmos 2058 Rocket 4.3 21:31:26 10° NNE 21:35:17 28° ENE 21:36:44 24° ESE
USA 234 4.0 21:30:11 10° E 21:36:26 49° NNE 21:42:42 10° NW
Cosmos 1980 Rocket 3.2 21:32:28 10° NNW 21:37:44 37° NE 21:41:03 20° ESE
ATLAS 2AS CENTAUR R/B 3.4 21:31:24 10° NW 21:37:58 44° WSW 21:41:56 21° S
Cosmos 1892 4.1 21:38:17 23° E 21:38:27 23° E 21:41:28 10° NE
Cosmos 1697 Rocket 2.8 21:34:21 10° NNW 21:40:00 70° ENE 21:42:50 30° SE
Cosmos 1452 Rocket 4.0 21:36:11 10° SSW 21:41:22 60° WNW 21:46:35 10° NNE
Cosmos 1703 4.0 21:39:26 19° SSW 21:41:58 48° WNW 21:45:43 10° N
ARIANE 5 R/B 2.8 21:41:11 30° S 21:43:17 68° WSW 21:47:44 10° NNW
Cosmos 1408 3.5 21:44:51 30° E 21:44:51 30° E 21:47:52 10° NNE
Cosmos 1656 4.1 21:39:44 10° NW 21:45:02 52° WSW 21:47:55 26° S
Cosmos 1110 Rocket 4.1 21:48:03 16° SSW 21:52:17 75° WNW 21:57:37 10° NNE
GP-B 3.4 21:49:49 10° NNE 21:54:09 50° E 21:55:18 40° SE
SAR-Lupe-4 3.4 21:51:06 10° NNE 21:54:41 76° ESE 21:55:20 56° S
Cosmos 1302 Rocket 4.2 21:54:27 36° SSE 21:56:16 53° ESE 22:01:19 10° NNE
Cosmos 1328 3.8 21:55:43 39° SSW 21:57:08 81° W 22:01:10 10° N
SL-8 R/B 3.7 21:54:44 10° WNW 21:59:35 84° NNE 22:02:04 29° ESE
Cosmos 2228 3.9 21:58:18 10° NNW 22:02:17 41° W 22:04:03 27° SW
Cosmos 2181 Rocket 4.3 22:02:46 32° SE 22:05:11 48° E 22:11:06 10° NNE
Cosmos 1833 Rocket 3.0 22:00:12 11° SW 22:05:37 64° WNW 22:11:14 10° NNE
Cosmos 192 4.2 22:05:44 37° S 22:07:38 77° ESE 22:12:33 10° NNE
Cosmos 2084 Rocket 3.9 22:04:22 10° NNW 22:08:10 49° NE 22:09:23 36° E
ATLAS 5 CENTAUR R/B 3.4 22:10:08 14° E 22:10:08 14° E 22:11:06 10° ENE
SAR-Lupe-1 4.5 22:07:20 10° N 22:10:51 58° WNW 22:11:51 40° SW
Okean 1-7 Rocket 4.3 22:11:18 36° ESE 22:11:54 37° E 22:16:02 10° NNE
Cosmos 1606 Rocket 4.1 22:08:00 10° NNW 22:12:11 51° W 22:13:37 35° SSW
SJ 16-02 3.9 22:12:06 10° NE 22:13:28 11° NE 22:14:49 10° ENE
Cosmos 962 Rocket 4.5 22:11:54 10° N 22:18:09 82° W 22:21:02 35° S
Cosmos 2360 4.5 22:16:17 10° NNW 22:21:55 58° WSW 22:24:01 37° S
Cosmos 968 Rocket 3.4 22:20:18 10° NNW 22:25:32 87° ENE 22:27:10 46° SSE
Cosmos 2082 Rocket 2.1 22:27:58 34° SSW 22:30:37 87° ESE 22:36:22 10° NNE
ASTEX 1 3.9 22:28:09 10° N 22:33:04 56° W 22:35:10 32° SW
USA 276 4.3 22:31:33 10° WNW 22:34:10 26° N 22:36:45 10° ENE
X-37B 2.7 22:31:34 10° W 22:32:25 18° W 22:32:25 18° W
ADEOS Rocket 3.8 22:30:44 30° SE 22:34:25 58° ENE 22:41:53 10° N
Cosmos 1932 4.5 22:35:39 39° S 22:37:51 62° ESE 22:44:04 10° NE
Cosmos 1825 2.1 22:38:07 67° E 22:38:07 67° E 22:41:47 10° NNE
ERS-2 3.8 22:39:09 10° NE 22:41:23 22° ENE 22:41:23 22° ENE
USA 267 3.8 22:39:14 10° NE 22:45:39 60° NNW 22:52:03 10° WSW
RESURS DK-1 4.3 22:43:23 10° WNW 22:46:10 18° WSW 22:46:32 17° WSW
Cosmos 2360 Rocket 4.3 22:44:40 10° N 22:48:47 20° NE 22:52:52 10° E
Cosmos 1812 Rocket 4.0 22:46:20 10° N 22:50:41 49° ENE 22:51:22 44° ESE
Cosmos 1633 3.3 22:51:55 40° ENE 22:51:55 40° ENE 22:54:42 10° NNE
ALOS 2 2.5 22:53:39 62° SE 22:54:17 77° ENE 22:58:42 10° N
SL-8 Rocket 4.2 22:50:01 10° NNW 22:56:08 60° W 22:58:31 37° SSW
H-2A R/B 3.3 22:52:31 10° NNE 22:56:45 82° ESE 22:57:07 72° SSE
Cosmos 1606 3.9 22:57:37 10° N 23:01:06 31° ENE 23:01:19 31° E
Cosmos 1486 Rocket 3.9 22:57:12 10° NNW 23:02:27 82° ENE 23:03:45 52° SSE
Cosmos 1602 Rocket 3.4 23:02:19 69° SE 23:02:39 75° E 23:06:59 10° NNE
Cosmos 1869 3.5 23:04:54 10° NNW 23:08:42 56° W 23:08:43 56° W
Cosmos 2218 Rocket 4.4 23:04:07 10° NNW 23:10:22 56° W 23:12:46 36° SSW
Cosmos 1992 Rocket 4.0 23:09:47 46° SW 23:11:22 76° WNW 23:16:38 10° NNE
Meteor 1-27 4.4 23:06:01 10° NNW 23:11:29 58° W 23:13:00 43° SSW
BREEZE-M DEB (TANK) 4.4 23:08:34 10° WNW 23:12:09 63° NNE 23:26:53 10° ESE
Cosmos 2366 rocket 4.4 23:06:29 10° NNW 23:12:37 54° W 23:14:58 36° SSW
Cosmos 1892 4.4 23:13:06 22° W 23:13:54 23° WNW 23:16:59 10° NNW
SL-16 R/B 2.6 23:10:47 10° NNW 23:16:23 57° ENE 23:18:41 34° ESE
Cosmos 2058 3.6 23:18:20 41° E 23:18:25 41° E 23:22:21 10° NNE
USA 234 3.2 23:16:55 40° SSE 23:19:19 65° SW 23:25:51 10° NW
Cosmos-2242 2.8 23:15:39 10° N 23:19:55 79° E 23:20:11 74° SE
Cosmos 1980 Rocket 3.0 23:16:31 10° NW 23:21:42 37° WSW 23:22:48 34° SW
Cosmos 1697 Rocket 4.5 23:19:42 10° WNW 23:23:18 18° W 23:24:33 16° WSW
Cosmos 1354 Rocket 4.2 23:22:03 10° NNW 23:27:22 67° ENE 23:28:55 44° SE
Cosmos 1953 Rocket 4.4 23:27:02 36° ESE 23:27:24 37° E 23:31:30 10° NNE
Cosmos 1626 Rocket 4.4 23:26:41 35° WSW 23:27:32 38° WNW 23:31:37 10° N
BREEZE-M DEB (TANK) 3.9 23:26:32 10° WSW 23:36:09 62° NNW 23:39:20 10° ENE
Cosmos 1503 Rocket 3.9 23:34:18 10° NNW 23:39:37 80° WSW 23:40:44 57° S
Cosmos 1825 Rocket 3.3 23:39:29 74° SE 23:39:46 79° E 23:44:06 10° N
Cosmos 1867 4.1 23:35:15 10° NW 23:40:19 39° WSW 23:40:44 39° SW
Cosmos 1340 Rocket 3.3 23:41:37 46° E 23:41:37 46° E 23:45:17 10° NNE
Cosmos 1934 Rocket 4.1 23:37:08 10° N 23:43:12 67° E 23:45:24 40° SSE
Meteor 2-2 Rocket 4.5 23:37:30 10° N 23:43:31 71° ENE 23:45:37 42° SSE
BREEZE-M DEB (TANK) 3.4 23:45:28 43° E 23:45:28 43° E 23:49:22 10° ENE
ATLAS 5 CENTAUR R/B 2.3 23:51:32 34° W 23:52:30 41° NW 23:56:29 10° NNE
SJ 16-02 1.2 23:48:15 10° NNW 23:52:43 89° ENE 23:53:10 72° SSE
Cosmos 1777 Rocket 4.1 23:48:05 10° NNW 23:53:24 73° ENE 23:55:01 45° SE
